• en France
  • Liste des pays
  • À 7 jours
  • Température de l'eau
  • Carte satellitaire
  • Carte météo
  • Widgets météo
  • user-avatar
    Se connecter

    Météo par heure à Rechytsa

    Ce jour, 23 Septembre, Dimanche

    Heure Température Précipitation Vent Pression Humidité
    00:00 +9°C° 0.1 mm 3 m/s 750 mmHg 91%
    01:00 +9°C° 0.1 mm 3 m/s 750 mmHg 92%
    02:00 +8°C° 0 mm 2 m/s 751 mmHg 94%
    03:00 +8°C° 0 mm 3 m/s 751 mmHg 94%
    04:00 +8°C° 0 mm 3 m/s 750 mmHg 94%
    05:00 +7°C° 0 mm 4 m/s 750 mmHg 94%
    06:00 +7°C° 0 mm 4 m/s 750 mmHg 93%
    07:00 +8°C° 0 mm 4 m/s 750 mmHg 91%
    08:00 +8°C° 0 mm 4 m/s 750 mmHg 89%
    09:00 +10°C° 0 mm 4 m/s 750 mmHg 82%
    10:00 +12°C° 0 mm 4 m/s 750 mmHg 75%
    11:00 +13°C° 0 mm 4 m/s 750 mmHg 68%
    12:00 +14°C° 0 mm 4 m/s 750 mmHg 62%
    13:00 +15°C° 0 mm 4 m/s 750 mmHg 56%
    14:00 +17°C° 0 mm 4 m/s 750 mmHg 50%
    15:00 +17°C° 0.1 mm 4 m/s 749 mmHg 53%
    16:00 +16°C° 0.1 mm 3 m/s 749 mmHg 56%
    17:00 +16°C° 0.1 mm 2 m/s 749 mmHg 59%
    18:00 +14°C° 0 mm 2 m/s 749 mmHg 62%
    19:00 +12°C° 0 mm 3 m/s 749 mmHg 65%
    20:00 +11°C° 0 mm 3 m/s 749 mmHg 68%
    21:00 +11°C° 0 mm 3 m/s 749 mmHg 68%
    22:00 +11°C° 0 mm 3 m/s 748 mmHg 67%
    23:00 +11°C° 0 mm 3 m/s 748 mmHg 67%

    Demain, 24 Septembre, Lundi

    Heure Température Précipitation Vent Pression Humidité
    00:00 +11°C° 0.1 mm 3 m/s 747 mmHg 70%
    01:00 +11°C° 0.1 mm 3 m/s 747 mmHg 72%
    02:00 +11°C° 0.1 mm 4 m/s 746 mmHg 75%
    03:00 +11°C° 1.4 mm 4 m/s 745 mmHg 79%
    04:00 +11°C° 1.4 mm 4 m/s 744 mmHg 83%
    05:00 +10°C° 1.4 mm 4 m/s 743 mmHg 87%
    06:00 +9°C° 1.5 mm 5 m/s 742 mmHg 87%
    07:00 +9°C° 1.5 mm 6 m/s 741 mmHg 87%
    08:00 +9°C° 1.5 mm 7 m/s 740 mmHg 87%
    09:00 +10°C° 0.9 mm 7 m/s 739 mmHg 88%
    10:00 +11°C° 0.9 mm 7 m/s 738 mmHg 89%
    11:00 +11°C° 0.9 mm 7 m/s 736 mmHg 90%
    12:00 +12°C° 0.5 mm 8 m/s 736 mmHg 87%
    13:00 +12°C° 0.5 mm 9 m/s 736 mmHg 85%
    14:00 +12°C° 0.5 mm 9 m/s 736 mmHg 82%
    15:00 +11°C° 0 mm 9 m/s 737 mmHg 81%
    16:00 +10°C° 0 mm 9 m/s 738 mmHg 80%
    17:00 +8°C° 0 mm 9 m/s 739 mmHg 79%
    18:00 +8°C° 0 mm 9 m/s 740 mmHg 78%
    19:00 +9°C° 0 mm 8 m/s 741 mmHg 77%
    20:00 +9°C° 0 mm 7 m/s 742 mmHg 77%
    21:00 +8°C° 0 mm 7 m/s 742 mmHg 78%
    22:00 +8°C° 0 mm 6 m/s 743 mmHg 80%
    23:00 +7°C° 0 mm 6 m/s 743 mmHg 82%

    Après-demain, 25 Septembre, Mardi

    Heure Température Précipitation Vent Pression Humidité
    00:00 +7°C° 0 mm 5 m/s 744 mmHg 84%
    01:00 +7°C° 0 mm 5 m/s 744 mmHg 86%
    02:00 +7°C° 0 mm 5 m/s 745 mmHg 87%
    03:00 +7°C° 0 mm 5 m/s 745 mmHg 85%
    04:00 +6°C° 0 mm 5 m/s 746 mmHg 83%
    05:00 +5°C° 0 mm 6 m/s 746 mmHg 80%
    06:00 +5°C° 0 mm 6 m/s 747 mmHg 78%
    07:00 +5°C° 0 mm 6 m/s 748 mmHg 76%
    08:00 +5°C° 0 mm 7 m/s 749 mmHg 74%
    09:00 +6°C° 0 mm 7 m/s 749 mmHg 67%
    10:00 +8°C° 0 mm 7 m/s 750 mmHg 61%
    11:00 +9°C° 0 mm 7 m/s 751 mmHg 55%
    12:00 +9°C° 0.1 mm 7 m/s 751 mmHg 52%
    13:00 +10°C° 0.1 mm 7 m/s 751 mmHg 49%
    14:00 +10°C° 0.1 mm 7 m/s 752 mmHg 46%
    15:00 +9°C° 0 mm 6 m/s 752 mmHg 48%
    16:00 +9°C° 0 mm 5 m/s 752 mmHg 50%
    17:00 +8°C° 0 mm 4 m/s 753 mmHg 52%
    18:00 +7°C° 0 mm 4 m/s 754 mmHg 56%
    19:00 +6°C° 0 mm 4 m/s 754 mmHg 61%
    20:00 +5°C° 0 mm 4 m/s 755 mmHg 66%
    21:00 +5°C° 0 mm 4 m/s 756 mmHg 67%
    22:00 +5°C° 0 mm 4 m/s 756 mmHg 69%
    23:00 +4°C° 0 mm 4 m/s 757 mmHg 70%

    26 Septembre, Mercredi

    Heure Température Précipitation Vent Pression Humidité
    00:00 +4°C° 0 mm 4 m/s 757 mmHg 70%
    01:00 +4°C° 0 mm 4 m/s 758 mmHg 69%
    02:00 +3°C° 0 mm 4 m/s 758 mmHg 68%
    03:00 +3°C° 0 mm 4 m/s 759 mmHg 69%
    04:00 +1°C° 0 mm 4 m/s 759 mmHg 69%
    05:00 +1°C° 0 mm 4 m/s 759 mmHg 69%
    06:00 +3°C° 0 mm 4 m/s 760 mmHg 68%
    07:00 +4°C° 0 mm 4 m/s 760 mmHg 67%
    08:00 +5°C° 0 mm 4 m/s 761 mmHg 66%
    09:00 +6°C° 0 mm 4 m/s 761 mmHg 61%
    10:00 +8°C° 0 mm 5 m/s 761 mmHg 55%
    11:00 +10°C° 0 mm 5 m/s 761 mmHg 50%
    12:00 +10°C° 0 mm 5 m/s 761 mmHg 47%
    13:00 +12°C° 0 mm 5 m/s 760 mmHg 44%
    14:00 +12°C° 0 mm 5 m/s 760 mmHg 41%
    15:00 +11°C° 0 mm 4 m/s 760 mmHg 44%
    16:00 +11°C° 0 mm 3 m/s 760 mmHg 48%
    17:00 +10°C° 0 mm 3 m/s 759 mmHg 52%
    18:00 +9°C° 0 mm 3 m/s 759 mmHg 54%
    19:00 +9°C° 0 mm 3 m/s 759 mmHg 56%
    20:00 +7°C° 0 mm 4 m/s 759 mmHg 57%
    21:00 +7°C° 0 mm 4 m/s 758 mmHg 57%
    22:00 +7°C° 0 mm 5 m/s 758 mmHg 57%
    23:00 +8°C° 0 mm 5 m/s 757 mmHg 56%

    27 Septembre, Jeudi

    Heure Température Précipitation Vent Pression Humidité
    00:00 +7°C° 0.1 mm 6 m/s 757 mmHg 60%
    01:00 +7°C° 0.1 mm 6 m/s 756 mmHg 63%
    02:00 +7°C° 0.1 mm 6 m/s 755 mmHg 67%
    03:00 +7°C° 0.1 mm 6 m/s 755 mmHg 68%
    04:00 +6°C° 0.1 mm 7 m/s 754 mmHg 69%
    05:00 +6°C° 0.1 mm 7 m/s 753 mmHg 71%
    06:00 +6°C° 0.1 mm 7 m/s 753 mmHg 72%
    07:00 +8°C° 0.1 mm 7 m/s 752 mmHg 73%
    08:00 +7°C° 0.1 mm 8 m/s 752 mmHg 74%
    09:00 +8°C° 0.1 mm 7 m/s 752 mmHg 76%
    10:00 +9°C° 0.1 mm 7 m/s 752 mmHg 77%
    11:00 +9°C° 0.1 mm 7 m/s 752 mmHg 78%
    12:00 +10°C° 0.1 mm 7 m/s 752 mmHg 79%
    13:00 +10°C° 0.1 mm 7 m/s 751 mmHg 80%
    14:00 +10°C° 0.1 mm 7 m/s 751 mmHg 81%
    15:00 +10°C° 0 mm 6 m/s 751 mmHg 82%
    16:00 +11°C° 0 mm 6 m/s 751 mmHg 82%
    17:00 +11°C° 0 mm 6 m/s 751 mmHg 83%
    18:00 +12°C° 0 mm 5 m/s 752 mmHg 84%
    19:00 +12°C° 0 mm 5 m/s 752 mmHg 85%
    20:00 +12°C° 0 mm 5 m/s 752 mmHg 87%
    21:00 +12°C° 0 mm 5 m/s 752 mmHg 88%
    22:00 +12°C° 0 mm 5 m/s 752 mmHg 89%
    23:00 +12°C° 0 mm 5 m/s 752 mmHg 90%

    28 Septembre, Vendredi

    Heure Température Précipitation Vent Pression Humidité
    00:00 +12°C° 0 mm 5 m/s 752 mmHg 91%
    01:00 +12°C° 0 mm 5 m/s 752 mmHg 91%
    02:00 +12°C° 0 mm 4 m/s 751 mmHg 91%
    03:00 +12°C° 0 mm 4 m/s 751 mmHg 92%
    04:00 +12°C° 0 mm 4 m/s 751 mmHg 92%
    05:00 +12°C° 0 mm 4 m/s 751 mmHg 93%
    06:00 +12°C° 0 mm 5 m/s 751 mmHg 91%
    07:00 +13°C° 0 mm 5 m/s 751 mmHg 89%
    08:00 +13°C° 0 mm 6 m/s 750 mmHg 88%
    09:00 +14°C° 0 mm 6 m/s 750 mmHg 82%
    10:00 +16°C° 0 mm 6 m/s 750 mmHg 76%
    11:00 +17°C° 0 mm 7 m/s 750 mmHg 70%
    12:00 +18°C° 0 mm 7 m/s 749 mmHg 67%
    13:00 +20°C° 0 mm 7 m/s 749 mmHg 64%
    14:00 +21°C° 0 mm 7 m/s 749 mmHg 60%
    15:00 +20°C° 0.1 mm 6 m/s 749 mmHg 64%
    16:00 +19°C° 0.1 mm 5 m/s 749 mmHg 68%
    17:00 +18°C° 0.1 mm 4 m/s 749 mmHg 72%
    18:00 +17°C° 0 mm 4 m/s 750 mmHg 76%
    19:00 +14°C° 0 mm 3 m/s 750 mmHg 81%
    20:00 +13°C° 0 mm 3 m/s 751 mmHg 86%
    21:00 +12°C° 0 mm 3 m/s 751 mmHg 88%
    22:00 +12°C° 0 mm 2 m/s 751 mmHg 90%
    23:00 +10°C° 0 mm 2 m/s 752 mmHg 92%
    Voir plus